Time,TemperatureF,DewpointF,PressureIn,WindDirection,WindDirectionDegrees,WindSpeedMPH,WindSpeedGustMPH,Humidity,HourlyPrecipIn,Conditions,Clouds,dailyrainin,SoftwareType,DateUTC
2014-10-25 00:02:00,51.1,37.3,29.68,SE,126,7.0,11.0,59,0.00,,---,0.14,VWS V14.01,2014-10-25 04:02:00,
2014-10-25 00:07:00,51.6,37.3,29.68,ESE,110,4.0,6.0,58,0.00,,---,0.00,VWS V14.01,2014-10-25 04:07:00,
2014-10-25 00:12:00,51.3,37.9,29.68,ENE,68,1.0,6.0,60,0.00,,---,0.00,VWS V14.01,2014-10-25 04:12:00,
2014-10-25 00:17:00,50.9,38.0,29.68,ENE,70,0.0,6.0,61,0.00,,---,0.00,VWS V14.01,2014-10-25 04:17:00,
2014-10-25 00:22:00,51.5,37.7,29.68,WSW,257,0.0,6.0,59,0.00,,---,0.00,VWS V14.01,2014-10-25 04:22:00,
2014-10-25 00:27:00,51.5,36.8,29.68,East,94,2.0,8.0,57,0.00,,---,0.00,VWS V14.01,2014-10-25 04:27:00,
2014-10-25 00:32:00,51.8,37.5,29.68,ESE,116,5.0,10.0,58,0.00,,---,0.00,VWS V14.01,2014-10-25 04:32:00,
2014-10-25 00:37:00,52.0,37.7,29.68,SE,125,4.0,5.0,58,0.00,,---,0.00,VWS V14.01,2014-10-25 04:37:00,
2014-10-25 00:42:00,52.1,35.5,29.67,NNE,27,2.0,5.0,53,0.00,,---,0.00,VWS V14.01,2014-10-25 04:42:00,
2014-10-25 00:47:00,52.1,37.8,29.68,West,266,1.0,5.0,58,0.00,,---,0.00,VWS V14.01,2014-10-25 04:47:00,
2014-10-25 00:52:00,51.2,37.8,29.68,SW,235,2.0,5.0,60,0.00,,---,0.00,VWS V14.01,2014-10-25 04:52:00,
2014-10-25 00:57:00,50.7,37.8,29.68,NE,36,4.0,5.0,61,0.00,,---,0.00,VWS V14.01,2014-10-25 04:57:00,
2014-10-25 01:02:00,50.4,39.1,29.68,West,262,1.0,6.0,65,0.00,,---,0.00,VWS V14.01,2014-10-25 05:02:00,
2014-10-25 01:07:00,49.5,40.9,29.68,WSW,248,2.0,3.0,72,0.00,,---,0.00,VWS V14.01,2014-10-25 05:07:00,
2014-10-25 01:12:00,48.8,40.9,29.68,WSW,253,1.0,3.0,74,0.00,,---,0.00,VWS V14.01,2014-10-25 05:12:00,
2014-10-25 01:17:00,48.4,40.2,29.68,West,259,1.0,3.0,73,0.00,,---,0.00,VWS V14.01,2014-10-25 05:17:00,
2014-10-25 01:22:00,48.0,40.1,29.68,West,259,0.0,3.0,74,0.00,,---,0.00,VWS V14.01,2014-10-25 05:22:00,
2014-10-25 01:27:00,47.5,40.0,29.68,WSW,257,0.0,3.0,75,0.00,,---,0.00,VWS V14.01,2014-10-25 05:27:00,
2014-10-25 01:32:00,47.4,40.6,29.68,West,259,1.0,3.0,77,0.00,,---,0.00,VWS V14.01,2014-10-25 05:32:00,
2014-10-25 01:37:00,46.9,40.1,29.68,West,263,1.0,3.0,77,0.00,,---,0.00,VWS V14.01,2014-10-25 05:37:00,
2014-10-25 01:42:00,46.6,39.8,29.68,West,266,2.0,3.0,77,0.00,,---,0.00,VWS V14.01,2014-10-25 05:42:00,
2014-10-25 01:47:00,46.5,39.7,29.68,WSW,245,1.0,3.0,77,0.00,,---,0.00,VWS V14.01,2014-10-25 05:47:00,
2014-10-25 01:52:00,46.2,39.7,29.68,WSW,245,0.0,3.0,78,0.00,,---,0.00,VWS V14.01,2014-10-25 05:52:00,
2014-10-25 01:57:00,45.8,39.7,29.68,West,269,0.0,3.0,79,0.00,,---,0.00,VWS V14.01,2014-10-25 05:57:00,
2014-10-25 02:02:00,45.5,39.7,29.68,WSW,252,1.0,3.0,80,0.00,,---,0.00,VWS V14.01,2014-10-25 06:02:00,
2014-10-25 02:07:00,45.5,39.4,29.68,WSW,252,2.0,3.0,79,0.00,,---,0.00,VWS V14.01,2014-10-25 06:07:00,
2014-10-25 02:12:00,45.4,39.3,29.68,WSW,252,1.0,3.0,79,0.00,,---,0.00,VWS V14.01,2014-10-25 06:12:00,
2014-10-25 02:17:00,45.2,39.4,29.68,WSW,252,0.0,3.0,80,0.00,,---,0.00,VWS V14.01,2014-10-25 06:17:00,
2014-10-25 02:22:00,45.0,39.2,29.68,SW,235,1.0,3.0,80,0.00,,---,0.00,VWS V14.01,2014-10-25 06:22:00,
2014-10-25 02:27:00,44.8,39.3,29.68,SW,235,0.0,3.0,81,0.00,,---,0.00,VWS V14.01,2014-10-25 06:27:00,
2014-10-25 02:32:00,44.6,39.5,29.67,SW,235,0.0,3.0,82,0.00,,---,0.00,VWS V14.01,2014-10-25 06:32:00,
2014-10-25 02:37:00,44.3,39.2,29.68,SE,139,1.0,2.0,82,0.00,,---,0.00,VWS V14.01,2014-10-25 06:37:00,
2014-10-25 02:42:00,44.2,39.4,29.68,SE,143,1.0,2.0,83,0.00,,---,0.00,VWS V14.01,2014-10-25 06:42:00,
2014-10-25 02:47:00,44.1,39.6,29.67,ENE,60,1.0,2.0,84,0.00,,---,0.00,VWS V14.01,2014-10-25 06:47:00,
2014-10-25 02:52:00,43.7,39.5,29.68,East,100,0.0,2.0,85,0.00,,---,0.00,VWS V14.01,2014-10-25 06:52:00,
2014-10-25 02:57:00,43.4,39.2,29.67,East,100,0.0,2.0,85,0.00,,---,0.00,VWS V14.01,2014-10-25 06:57:00,
2014-10-25 03:02:00,43.2,39.6,29.67,East,100,0.0,2.0,87,0.00,,---,0.00,VWS V14.01,2014-10-25 07:02:00,
2014-10-25 03:07:00,42.8,38.9,29.67,East,100,0.0,1.0,86,0.00,,---,0.00,VWS V14.01,2014-10-25 07:07:00,
2014-10-25 03:12:00,42.6,39.0,29.67,East,101,0.0,1.0,87,0.00,,---,0.00,VWS V14.01,2014-10-25 07:12:00,
2014-10-25 03:17:00,42.1,38.5,29.67,ESE,105,0.0,2.0,87,0.00,,---,0.00,VWS V14.01,2014-10-25 07:17:00,
2014-10-25 03:22:00,41.7,38.7,29.67,ESE,105,2.0,2.0,89,0.00,,---,0.00,VWS V14.01,2014-10-25 07:22:00,
2014-10-25 03:27:00,41.6,38.6,29.67,ESE,112,0.0,3.0,89,0.00,,---,0.00,VWS V14.01,2014-10-25 07:27:00,
2014-10-25 03:32:00,41.5,38.8,29.67,ESE,112,0.0,3.0,90,0.00,,---,0.00,VWS V14.01,2014-10-25 07:32:00,
2014-10-25 03:37:00,41.3,38.6,29.67,ESE,120,0.0,1.0,90,0.00,,---,0.00,VWS V14.01,2014-10-25 07:37:00,
2014-10-25 03:42:00,41.3,38.6,29.67,ESE,120,0.0,1.0,90,0.00,,---,0.00,VWS V14.01,2014-10-25 07:42:00,
2014-10-25 03:47:00,41.3,38.6,29.66,ESE,120,0.0,1.0,90,0.00,,---,0.00,VWS V14.01,2014-10-25 07:47:00,
2014-10-25 03:52:00,40.9,38.2,29.67,ESE,110,0.0,4.0,90,0.00,,---,0.00,VWS V14.01,2014-10-25 07:52:00,
2014-10-25 03:57:00,40.7,38.3,29.67,ESE,110,0.0,4.0,91,0.00,,---,0.00,VWS V14.01,2014-10-25 07:57:00,
2014-10-25 04:02:00,40.6,38.2,29.66,ESE,110,0.0,4.0,91,0.00,,---,0.00,VWS V14.01,2014-10-25 08:02:00,
2014-10-25 04:07:00,40.5,38.1,29.67,ESE,110,0.0,2.0,91,0.00,,---,0.00,VWS V14.01,2014-10-25 08:07:00,
2014-10-25 04:12:00,40.5,38.4,29.66,ESE,115,1.0,3.0,92,0.00,,---,0.00,VWS V14.01,2014-10-25 08:12:00,
2014-10-25 04:17:00,40.4,38.3,29.66,ESE,115,0.0,3.0,92,0.00,,---,0.00,VWS V14.01,2014-10-25 08:17:00,
2014-10-25 04:22:00,40.5,38.4,29.66,ESE,115,0.0,3.0,92,0.00,,---,0.00,VWS V14.01,2014-10-25 08:22:00,
2014-10-25 04:27:00,40.5,38.4,29.66,ESE,115,0.0,3.0,92,0.00,,---,0.00,VWS V14.01,2014-10-25 08:27:00,
2014-10-25 04:32:00,40.8,38.7,29.66,ESE,117,0.0,3.0,92,0.00,,---,0.00,VWS V14.01,2014-10-25 08:32:00,
2014-10-25 04:37:00,40.9,38.8,29.66,ESE,117,0.0,1.0,92,0.00,,---,0.00,VWS V14.01,2014-10-25 08:37:00,
2014-10-25 04:42:00,40.9,38.8,29.66,ESE,117,0.0,1.0,92,0.00,,---,0.00,VWS V14.01,2014-10-25 08:42:00,
2014-10-25 04:47:00,40.8,38.7,29.66,ESE,117,0.0,2.0,92,0.00,,---,0.00,VWS V14.01,2014-10-25 08:47:00,
2014-10-25 04:52:00,40.7,38.6,29.66,ESE,117,0.0,2.0,92,0.00,,---,0.00,VWS V14.01,2014-10-25 08:52:00,
2014-10-25 04:57:00,40.5,38.4,29.66,ESE,117,0.0,2.0,92,0.00,,---,0.00,VWS V14.01,2014-10-25 08:57:00,
2014-10-25 05:02:00,40.5,38.4,29.66,ESE,117,0.0,2.0,92,0.00,,---,0.00,VWS V14.01,2014-10-25 09:02:00,
2014-10-25 05:07:00,40.4,38.3,29.66,ESE,117,0.0,1.0,92,0.00,,---,0.00,VWS V14.01,2014-10-25 09:07:00,
2014-10-25 05:12:00,40.1,38.0,29.66,ESE,117,0.0,1.0,92,0.00,,---,0.00,VWS V14.01,2014-10-25 09:12:00,
2014-10-25 05:17:00,39.9,38.0,29.66,ESE,117,1.0,1.0,93,0.00,,---,0.00,VWS V14.01,2014-10-25 09:17:00,
2014-10-25 05:22:00,39.8,38.0,29.66,ESE,117,0.0,1.0,93,0.00,,---,0.00,VWS V14.01,2014-10-25 09:22:00,
2014-10-25 05:27:00,39.7,37.8,29.66,SE,144,0.0,1.0,93,0.00,,---,0.00,VWS V14.01,2014-10-25 09:27:00,
2014-10-25 05:32:00,39.6,37.8,29.65,SE,144,0.0,1.0,93,0.00,,---,0.00,VWS V14.01,2014-10-25 09:32:00,
2014-10-25 05:37:00,39.5,37.7,29.66,SE,143,0.0,1.0,93,0.00,,---,0.00,VWS V14.01,2014-10-25 09:37:00,
2014-10-25 05:42:00,39.5,37.9,29.65,ESE,114,2.0,3.0,94,0.00,,---,0.00,VWS V14.01,2014-10-25 09:42:00,
2014-10-25 05:47:00,38.9,37.0,29.66,ESE,115,0.0,3.0,93,0.00,,---,0.00,VWS V14.01,2014-10-25 09:47:00,
2014-10-25 05:52:00,38.6,37.0,29.66,ESE,115,0.0,3.0,94,0.00,,---,0.00,VWS V14.01,2014-10-25 09:52:00,
2014-10-25 05:57:00,38.5,36.9,29.66,ESE,115,0.0,3.0,94,0.00,,---,0.00,VWS V14.01,2014-10-25 09:57:00,
2014-10-25 06:02:00,38.3,36.7,29.66,ESE,115,1.0,3.0,94,0.00,,---,0.00,VWS V14.01,2014-10-25 10:02:00,
2014-10-25 06:07:00,38.3,37.0,29.66,ESE,115,0.0,1.0,95,0.00,,---,0.00,VWS V14.01,2014-10-25 10:07:00,
2014-10-25 06:12:00,38.3,37.0,29.66,ESE,113,0.0,3.0,95,0.00,,---,0.00,VWS V14.01,2014-10-25 10:12:00,
2014-10-25 06:17:00,38.3,37.0,29.66,ESE,113,0.0,3.0,95,0.00,,---,0.00,VWS V14.01,2014-10-25 10:17:00,
2014-10-25 06:22:00,38.3,37.0,29.66,ESE,113,0.0,3.0,95,0.00,,---,0.00,VWS V14.01,2014-10-25 10:22:00,
2014-10-25 06:27:00,38.3,37.0,29.66,ESE,113,2.0,3.0,95,0.00,,---,0.00,VWS V14.01,2014-10-25 10:27:00,
2014-10-25 06:32:00,38.1,36.8,29.66,ESE,113,0.0,3.0,95,0.00,,---,0.00,VWS V14.01,2014-10-25 10:32:00,
2014-10-25 06:37:00,37.9,36.6,29.66,ESE,113,0.0,0.0,95,0.00,,---,0.00,VWS V14.01,2014-10-25 10:37:00,
2014-10-25 06:42:00,37.9,36.6,29.66,ESE,113,0.0,0.0,95,0.00,,---,0.00,VWS V14.01,2014-10-25 10:42:00,
2014-10-25 06:47:00,38.0,36.7,29.66,ESE,113,0.0,1.0,95,0.00,,---,0.00,VWS V14.01,2014-10-25 10:47:00,
2014-10-25 06:52:00,37.9,36.6,29.66,ESE,113,0.0,1.0,95,0.00,,---,0.00,VWS V14.01,2014-10-25 10:52:00,
2014-10-25 06:57:00,37.8,36.5,29.66,ESE,113,0.0,1.0,95,0.00,,---,0.00,VWS V14.01,2014-10-25 10:57:00,
2014-10-25 07:02:00,37.6,36.3,29.66,ESE,113,1.0,2.0,95,0.00,,---,0.00,VWS V14.01,2014-10-25 11:02:00,
2014-10-25 07:07:00,37.4,36.1,29.66,ESE,113,0.0,1.0,95,0.00,,---,0.00,VWS V14.01,2014-10-25 11:07:00,
2014-10-25 07:12:00,37.4,36.1,29.66,ESE,113,0.0,1.0,95,0.00,,---,0.00,VWS V14.01,2014-10-25 11:12:00,
2014-10-25 07:17:00,37.5,36.2,29.66,ESE,112,0.0,3.0,95,0.00,,---,0.00,VWS V14.01,2014-10-25 11:17:00,
2014-10-25 07:22:00,37.9,36.9,29.66,ESE,112,0.0,3.0,96,0.00,,---,0.00,VWS V14.01,2014-10-25 11:22:00,
2014-10-25 07:27:00,37.9,36.6,29.66,ESE,112,0.0,3.0,95,0.00,,---,0.00,VWS V14.01,2014-10-25 11:27:00,
2014-10-25 07:32:00,37.8,36.5,29.66,ESE,112,0.0,3.0,95,0.00,,---,0.00,VWS V14.01,2014-10-25 11:32:00,
2014-10-25 07:37:00,37.4,36.1,29.67,ESE,117,0.0,3.0,95,0.00,,---,0.00,VWS V14.01,2014-10-25 11:37:00,
2014-10-25 07:42:00,37.2,35.9,29.67,ESE,117,0.0,3.0,95,0.00,,---,0.00,VWS V14.01,2014-10-25 11:42:00,
2014-10-25 07:47:00,37.2,35.9,29.67,ESE,117,0.0,3.0,95,0.00,,---,0.00,VWS V14.01,2014-10-25 11:47:00,
2014-10-25 07:52:00,37.7,36.7,29.67,ESE,117,0.0,3.0,96,0.00,,---,0.00,VWS V14.01,2014-10-25 11:52:00,
2014-10-25 07:57:00,38.2,37.2,29.67,ESE,117,0.0,3.0,96,0.00,,---,0.00,VWS V14.01,2014-10-25 11:57:00,
2014-10-25 08:02:00,38.5,37.5,29.67,ESE,117,0.0,3.0,96,0.00,,---,0.00,VWS V14.01,2014-10-25 12:02:00,
2014-10-25 08:07:00,38.9,37.9,29.67,ESE,117,0.0,0.0,96,0.00,,---,0.00,VWS V14.01,2014-10-25 12:07:00,
2014-10-25 08:12:00,39.2,38.2,29.67,ESE,117,0.0,0.0,96,0.00,,---,0.00,VWS V14.01,2014-10-25 12:12:00,
2014-10-25 08:17:00,39.6,38.6,29.67,ESE,117,0.0,0.0,96,0.00,,---,0.00,VWS V14.01,2014-10-25 12:17:00,
2014-10-25 08:22:00,40.0,39.0,29.67,ESE,117,1.0,1.0,96,0.00,,---,0.00,VWS V14.01,2014-10-25 12:22:00,
2014-10-25 08:27:00,40.6,39.5,29.67,ESE,117,0.0,1.0,96,0.00,,---,0.00,VWS V14.01,2014-10-25 12:27:00,
2014-10-25 08:32:00,41.2,40.2,29.67,ESE,117,0.0,1.0,96,0.00,,---,0.00,VWS V14.01,2014-10-25 12:32:00,
2014-10-25 08:37:00,41.8,40.8,29.67,ESE,117,2.0,2.0,96,0.00,,---,0.00,VWS V14.01,2014-10-25 12:37:00,
2014-10-25 08:42:00,42.3,41.2,29.67,ESE,117,0.0,2.0,96,0.00,,---,0.00,VWS V14.01,2014-10-25 12:42:00,
2014-10-25 08:47:00,42.8,41.7,29.67,ESE,117,0.0,2.0,96,0.00,,---,0.00,VWS V14.01,2014-10-25 12:47:00,
2014-10-25 08:52:00,43.5,42.4,29.67,ESE,117,0.0,2.0,96,0.00,,---,0.00,VWS V14.01,2014-10-25 12:52:00,
2014-10-25 08:57:00,44.0,42.9,29.67,ESE,117,0.0,2.0,96,0.00,,---,0.00,VWS V14.01,2014-10-25 12:57:00,
2014-10-25 09:02:00,44.5,43.2,29.67,ESE,117,0.0,2.0,95,0.00,,---,0.00,VWS V14.01,2014-10-25 13:02:00,
2014-10-25 09:07:00,44.7,43.1,29.67,ESE,117,0.0,0.0,94,0.00,,---,0.00,VWS V14.01,2014-10-25 13:07:00,
2014-10-25 09:12:00,45.1,43.5,29.67,ESE,117,0.0,0.0,94,0.00,,---,0.00,VWS V14.01,2014-10-25 13:12:00,
2014-10-25 09:17:00,45.7,43.5,29.67,ESE,117,0.0,0.0,92,0.00,,---,0.00,VWS V14.01,2014-10-25 13:17:00,
2014-10-25 09:22:00,46.7,44.2,29.67,ESE,117,0.0,0.0,91,0.00,,---,0.00,VWS V14.01,2014-10-25 13:22:00,
2014-10-25 09:27:00,47.5,44.7,29.66,ESE,117,0.0,0.0,90,0.00,,---,0.00,VWS V14.01,2014-10-25 13:27:00,
2014-10-25 09:32:00,48.5,44.8,29.66,ESE,117,0.0,0.0,87,0.00,,---,0.00,VWS V14.01,2014-10-25 13:32:00,
2014-10-25 09:37:00,49.3,44.7,29.66,ESE,117,0.0,0.0,84,0.00,,---,0.00,VWS V14.01,2014-10-25 13:37:00,
2014-10-25 09:42:00,50.2,43.6,29.66,ESE,117,0.0,1.0,78,0.00,,---,0.00,VWS V14.01,2014-10-25 13:42:00,
2014-10-25 09:47:00,50.9,42.6,29.66,ESE,117,1.0,1.0,73,0.00,,---,0.00,VWS V14.01,2014-10-25 13:47:00,
2014-10-25 09:52:00,51.6,44.3,29.66,ESE,117,0.0,1.0,76,0.00,,---,0.00,VWS V14.01,2014-10-25 13:52:00,
2014-10-25 09:57:00,52.3,42.8,29.66,East,98,0.0,2.0,70,0.00,,---,0.00,VWS V14.01,2014-10-25 13:57:00,
2014-10-25 10:02:00,52.7,43.6,29.66,East,79,0.0,2.0,71,0.00,,---,0.00,VWS V14.01,2014-10-25 14:02:00,
2014-10-25 10:06:00,53.3,43.8,29.66,ENE,75,0.0,2.0,70,0.00,,---,0.00,VWS V14.01,2014-10-25 14:06:00,
2014-10-25 10:11:00,54.0,43.7,29.65,ENE,75,0.0,2.0,68,0.00,,---,0.00,VWS V14.01,2014-10-25 14:11:00,
2014-10-25 10:16:00,54.7,43.6,29.65,ENE,77,0.0,2.0,66,0.00,,---,0.00,VWS V14.01,2014-10-25 14:16:00,
2014-10-25 10:21:00,55.3,43.3,29.65,ENE,75,2.0,2.0,64,0.00,,---,0.00,VWS V14.01,2014-10-25 14:21:00,
2014-10-25 10:26:00,55.6,42.4,29.65,ENE,72,2.0,2.0,61,0.00,,---,0.00,VWS V14.01,2014-10-25 14:26:00,
2014-10-25 10:31:00,55.9,42.7,29.65,NE,38,0.0,3.0,61,0.00,,---,0.00,VWS V14.01,2014-10-25 14:31:00,
2014-10-25 10:36:00,56.5,43.7,29.65,NE,39,0.0,0.0,62,0.00,,---,0.00,VWS V14.01,2014-10-25 14:36:00,
2014-10-25 10:41:00,56.8,43.9,29.65,NE,38,0.0,0.0,62,0.00,,---,0.00,VWS V14.01,2014-10-25 14:41:00,
2014-10-25 10:46:00,57.3,44.0,29.64,NE,39,0.0,1.0,61,0.00,,---,0.00,VWS V14.01,2014-10-25 14:46:00,
2014-10-25 10:51:00,57.8,45.3,29.64,NE,39,0.0,1.0,63,0.00,,---,0.00,VWS V14.01,2014-10-25 14:51:00,
2014-10-25 10:56:00,58.0,44.2,29.64,West,271,1.0,2.0,60,0.00,,---,0.00,VWS V14.01,2014-10-25 14:56:00,
2014-10-25 11:01:00,58.0,44.2,29.64,West,271,0.0,2.0,60,0.00,,---,0.00,VWS V14.01,2014-10-25 15:01:00,
2014-10-25 11:06:00,57.9,43.2,29.62,NNW,348,1.0,2.0,58,0.00,,---,0.00,VWS V14.01,2014-10-25 15:06:00,
2014-10-25 11:11:00,58.3,43.6,29.63,NNW,348,0.0,2.0,58,0.00,,---,0.00,VWS V14.01,2014-10-25 15:11:00,
2014-10-25 11:16:00,58.5,43.3,29.62,NNW,348,0.0,2.0,57,0.00,,---,0.00,VWS V14.01,2014-10-25 15:16:00,
2014-10-25 11:21:00,58.6,43.9,29.62,NNW,348,1.0,2.0,58,0.00,,---,0.00,VWS V14.01,2014-10-25 15:21:00,
2014-10-25 11:26:00,59.0,43.3,29.62,North,350,0.0,2.0,56,0.00,,---,0.00,VWS V14.01,2014-10-25 15:26:00,
2014-10-25 11:31:00,59.6,44.4,29.61,NNE,21,1.0,3.0,57,0.00,,---,0.00,VWS V14.01,2014-10-25 15:31:00,
2014-10-25 11:36:00,59.9,42.2,29.61,NE,35,1.0,3.0,52,0.00,,---,0.00,VWS V14.01,2014-10-25 15:36:00,
2014-10-25 11:41:00,60.0,43.3,29.61,NNE,27,0.0,3.0,54,0.00,,---,0.00,VWS V14.01,2014-10-25 15:41:00,
2014-10-25 11:46:00,60.3,45.0,29.61,NNW,338,0.0,3.0,57,0.00,,---,0.00,VWS V14.01,2014-10-25 15:46:00,
2014-10-25 11:51:00,60.5,42.3,29.61,North,1,0.0,3.0,51,0.00,,---,0.00,VWS V14.01,2014-10-25 15:51:00,
2014-10-25 11:56:00,60.8,42.1,29.61,North,1,0.0,3.0,50,0.00,,---,0.00,VWS V14.01,2014-10-25 15:56:00,
2014-10-25 12:01:00,61.2,41.4,29.61,West,273,1.0,3.0,48,0.00,,---,0.00,VWS V14.01,2014-10-25 16:01:00,
2014-10-25 12:06:00,61.3,41.5,29.60,West,272,1.0,1.0,48,0.00,,---,0.00,VWS V14.01,2014-10-25 16:06:00,
2014-10-25 12:11:00,61.3,41.5,29.60,ESE,113,3.0,3.0,48,0.00,,---,0.00,VWS V14.01,2014-10-25 16:11:00,
2014-10-25 12:16:00,61.1,42.8,29.59,ESE,106,12.0,13.0,51,0.00,,---,0.00,VWS V14.01,2014-10-25 16:16:00,
2014-10-25 12:21:00,60.6,41.4,29.59,SSE,147,4.0,15.0,49,0.00,,---,0.00,VWS V14.01,2014-10-25 16:21:00,
2014-10-25 12:26:00,61.2,42.4,29.60,East,84,2.0,15.0,50,0.00,,---,0.00,VWS V14.01,2014-10-25 16:26:00,
2014-10-25 12:31:00,61.7,40.2,29.59,ESE,113,2.0,15.0,45,0.00,,---,0.00,VWS V14.01,2014-10-25 16:31:00,
2014-10-25 12:36:00,62.1,41.1,29.59,SE,127,3.0,6.0,46,0.00,,---,0.00,VWS V14.01,2014-10-25 16:36:00,
2014-10-25 12:41:00,62.2,40.0,29.58,ESE,105,5.0,8.0,44,0.00,,---,0.00,VWS V14.01,2014-10-25 16:41:00,
2014-10-25 12:46:00,62.2,38.2,29.58,ESE,117,6.0,12.0,41,0.00,,---,0.00,VWS V14.01,2014-10-25 16:46:00,
2014-10-25 12:51:00,62.2,37.6,29.58,ENE,71,7.0,12.0,40,0.00,,---,0.00,VWS V14.01,2014-10-25 16:51:00,
2014-10-25 12:56:00,62.2,37.6,29.58,ESE,120,10.0,14.0,40,0.00,,---,0.00,VWS V14.01,2014-10-25 16:56:00,
2014-10-25 13:01:00,62.0,37.4,29.58,East,89,6.0,16.0,40,0.00,,---,0.00,VWS V14.01,2014-10-25 17:01:00,
2014-10-25 13:06:00,61.8,36.6,29.58,East,80,5.0,15.0,39,0.00,,---,0.00,VWS V14.01,2014-10-25 17:06:00,
2014-10-25 13:11:00,61.8,37.9,29.58,ESE,107,4.0,15.0,41,0.00,,---,0.00,VWS V14.01,2014-10-25 17:11:00,
2014-10-25 13:16:00,61.9,36.7,29.57,SE,127,4.0,15.0,39,0.00,,---,0.00,VWS V14.01,2014-10-25 17:16:00,
2014-10-25 13:21:00,62.2,37.0,29.57,SE,129,8.0,15.0,39,0.00,,---,0.00,VWS V14.01,2014-10-25 17:21:00,
2014-10-25 13:26:00,62.2,34.9,29.57,ENE,58,4.0,15.0,36,0.00,,---,0.00,VWS V14.01,2014-10-25 17:26:00,
2014-10-25 13:31:00,62.1,34.2,29.57,ESE,120,8.0,15.0,35,0.00,,---,0.00,VWS V14.01,2014-10-25 17:31:00,
2014-10-25 13:36:00,62.5,35.2,29.56,ESE,108,6.0,10.0,36,0.00,,---,0.00,VWS V14.01,2014-10-25 17:36:00,
2014-10-25 13:41:00,62.2,32.8,29.56,ESE,108,7.0,13.0,33,0.00,,---,0.00,VWS V14.01,2014-10-25 17:41:00,
2014-10-25 13:46:00,62.0,33.3,29.56,SE,131,7.0,15.0,34,0.00,,---,0.00,VWS V14.01,2014-10-25 17:46:00,
2014-10-25 13:51:00,61.4,34.2,29.56,ESE,110,7.0,15.0,36,0.00,,---,0.00,VWS V14.01,2014-10-25 17:51:00,
2014-10-25 13:56:00,60.8,34.4,29.56,ESE,119,12.0,15.0,37,0.00,,---,0.00,VWS V14.01,2014-10-25 17:56:00,
2014-10-25 14:01:00,60.4,34.0,29.56,SE,131,8.0,15.0,37,0.00,,---,0.00,VWS V14.01,2014-10-25 18:01:00,
2014-10-25 14:06:00,59.9,35.5,29.56,ESE,116,4.0,10.0,40,0.00,,---,0.00,VWS V14.01,2014-10-25 18:06:00,
2014-10-25 14:11:00,59.7,36.0,29.56,East,100,4.0,10.0,41,0.00,,---,0.00,VWS V14.01,2014-10-25 18:11:00,
2014-10-25 14:16:00,59.3,34.4,29.56,SE,126,6.0,14.0,39,0.00,,---,0.00,VWS V14.01,2014-10-25 18:16:00,
2014-10-25 14:21:00,58.8,35.8,29.55,ENE,72,3.0,14.0,42,0.00,,---,0.00,VWS V14.01,2014-10-25 18:21:00,
2014-10-25 14:26:00,58.4,36.0,29.55,ENE,71,4.0,14.0,43,0.00,,---,0.00,VWS V14.01,2014-10-25 18:26:00,
2014-10-25 14:31:00,58.2,35.2,29.55,East,94,2.0,14.0,42,0.00,,---,0.00,VWS V14.01,2014-10-25 18:31:00,
2014-10-25 14:36:00,58.8,35.8,29.55,ESE,119,5.0,12.0,42,0.00,,---,0.00,VWS V14.01,2014-10-25 18:36:00,
2014-10-25 14:41:00,59.9,35.5,29.55,East,97,3.0,12.0,40,0.00,,---,0.00,VWS V14.01,2014-10-25 18:41:00,
2014-10-25 14:46:00,60.8,35.7,29.55,ESE,123,3.0,12.0,39,0.00,,---,0.00,VWS V14.01,2014-10-25 18:46:00,
2014-10-25 14:51:00,61.6,35.1,29.54,ESE,119,3.0,12.0,37,0.00,,---,0.00,VWS V14.01,2014-10-25 18:51:00,
2014-10-25 14:56:00,62.3,33.6,29.54,ESE,122,3.0,12.0,34,0.00,,---,0.00,VWS V14.01,2014-10-25 18:56:00,
2014-10-25 15:01:00,62.4,33.7,29.54,SE,130,6.0,14.0,34,0.00,,---,0.00,VWS V14.01,2014-10-25 19:01:00,
2014-10-25 15:06:00,62.5,35.2,29.54,East,93,5.0,10.0,36,0.00,,---,0.00,VWS V14.01,2014-10-25 19:06:00,
2014-10-25 15:11:00,62.7,33.2,29.54,ESE,120,4.0,13.0,33,0.00,,---,0.00,VWS V14.01,2014-10-25 19:11:00,
2014-10-25 15:16:00,62.5,34.5,29.54,ESE,113,4.0,13.0,35,0.00,,---,0.00,VWS V14.01,2014-10-25 19:16:00,
2014-10-25 15:21:00,62.1,35.5,29.53,East,92,11.0,14.0,37,0.00,,---,0.00,VWS V14.01,2014-10-25 19:21:00,
2014-10-25 15:26:00,62.1,37.5,29.53,NE,55,3.0,15.0,40,0.00,,---,0.00,VWS V14.01,2014-10-25 19:26:00,
2014-10-25 15:31:00,62.5,35.9,29.53,ESE,118,7.0,15.0,37,0.00,,---,0.00,VWS V14.01,2014-10-25 19:31:00,
2014-10-25 15:36:00,62.4,37.1,29.53,East,96,4.0,9.0,39,0.00,,---,0.00,VWS V14.01,2014-10-25 19:36:00,
2014-10-25 15:41:00,62.6,37.3,29.53,ESE,106,1.0,9.0,39,0.00,,---,0.00,VWS V14.01,2014-10-25 19:41:00,
2014-10-25 15:46:00,62.3,37.7,29.52,SSE,148,2.0,9.0,40,0.00,,---,0.00,VWS V14.01,2014-10-25 19:46:00,
2014-10-25 15:51:00,61.7,37.8,29.52,East,96,3.0,9.0,41,0.00,,---,0.00,VWS V14.01,2014-10-25 19:51:00,
2014-10-25 15:56:00,60.9,37.1,29.52,East,99,3.0,9.0,41,0.00,,---,0.00,VWS V14.01,2014-10-25 19:56:00,
2014-10-25 16:01:00,61.0,37.2,29.52,SE,125,1.0,9.0,41,0.00,,---,0.00,VWS V14.01,2014-10-25 20:01:00,
2014-10-25 16:06:00,61.3,38.6,29.52,ESE,117,0.0,2.0,43,0.00,,---,0.00,VWS V14.01,2014-10-25 20:06:00,
2014-10-25 16:11:00,61.4,38.1,29.52,East,101,1.0,3.0,42,0.00,,---,0.00,VWS V14.01,2014-10-25 20:11:00,
2014-10-25 16:16:00,61.1,37.9,29.52,SE,125,1.0,3.0,42,0.00,,---,0.00,VWS V14.01,2014-10-25 20:16:00,
2014-10-25 16:21:00,60.4,40.1,29.52,East,87,3.0,3.0,47,0.00,,---,0.00,VWS V14.01,2014-10-25 20:21:00,
2014-10-25 16:26:00,60.1,41.4,29.52,SE,127,3.0,4.0,50,0.00,,---,0.00,VWS V14.01,2014-10-25 20:26:00,
2014-10-25 16:31:00,59.3,39.1,29.52,East,99,2.0,5.0,47,0.00,,---,0.00,VWS V14.01,2014-10-25 20:31:00,
2014-10-25 16:36:00,59.3,41.7,29.52,East,85,0.0,1.0,52,0.00,,---,0.00,VWS V14.01,2014-10-25 20:36:00,
2014-10-25 16:41:00,59.2,40.1,29.52,East,86,0.0,1.0,49,0.00,,---,0.00,VWS V14.01,2014-10-25 20:41:00,
2014-10-25 16:46:00,59.7,40.5,29.52,East,88,1.0,1.0,49,0.00,,---,0.00,VWS V14.01,2014-10-25 20:46:00,
2014-10-25 16:51:00,59.5,40.3,29.52,ESE,113,2.0,3.0,49,0.00,,---,0.00,VWS V14.01,2014-10-25 20:51:00,
2014-10-25 16:56:00,59.1,41.0,29.53,ESE,116,2.0,7.0,51,0.00,,---,0.00,VWS V14.01,2014-10-25 20:56:00,
2014-10-25 17:01:00,58.6,41.0,29.53,ESE,106,4.0,7.0,52,0.00,,---,0.00,VWS V14.01,2014-10-25 21:01:00,
2014-10-25 17:06:00,58.0,41.0,29.53,SSE,148,2.0,6.0,53,0.00,,---,0.00,VWS V14.01,2014-10-25 21:06:00,
2014-10-25 17:11:00,57.7,40.7,29.54,ESE,105,3.0,10.0,53,0.00,,---,0.00,VWS V14.01,2014-10-25 21:11:00,
2014-10-25 17:16:00,57.2,40.7,29.54,SE,125,4.0,10.0,54,0.00,,---,0.00,VWS V14.01,2014-10-25 21:16:00,
2014-10-25 17:21:00,57.0,40.5,29.54,ESE,107,6.0,10.0,54,0.00,,---,0.00,VWS V14.01,2014-10-25 21:21:00,
2014-10-25 17:26:00,56.7,40.7,29.54,ESE,109,6.0,10.0,55,0.00,,---,0.00,VWS V14.01,2014-10-25 21:26:00,
2014-10-25 17:31:00,56.5,41.0,29.54,ESE,109,1.0,10.0,56,0.00,,---,0.00,VWS V14.01,2014-10-25 21:31:00,
2014-10-25 17:36:00,56.3,41.3,29.54,ESE,106,2.0,4.0,57,0.00,,---,0.00,VWS V14.01,2014-10-25 21:36:00,
2014-10-25 17:41:00,56.1,41.5,29.53,ESE,123,0.0,4.0,58,0.00,,---,0.00,VWS V14.01,2014-10-25 21:41:00,
2014-10-25 17:46:00,55.9,41.8,29.53,ESE,122,0.0,4.0,59,0.00,,---,0.00,VWS V14.01,2014-10-25 21:46:00,
2014-10-25 17:51:00,55.7,41.6,29.53,East,101,2.0,4.0,59,0.00,,---,0.00,VWS V14.01,2014-10-25 21:51:00,
2014-10-25 17:56:00,55.5,41.9,29.52,ESE,110,0.0,4.0,60,0.00,,---,0.00,VWS V14.01,2014-10-25 21:56:00,
2014-10-25 18:01:00,55.3,43.3,29.52,ESE,110,0.0,4.0,64,0.00,,---,0.00,VWS V14.01,2014-10-25 22:01:00,
2014-10-25 18:06:00,54.8,43.3,29.52,ESE,110,1.0,1.0,65,0.00,,---,0.00,VWS V14.01,2014-10-25 22:06:00,
2014-10-25 18:11:00,54.2,43.1,29.52,ESE,110,0.0,1.0,66,0.00,,---,0.00,VWS V14.01,2014-10-25 22:11:00,
2014-10-25 18:16:00,53.7,43.0,29.51,ESE,110,0.0,1.0,67,0.00,,---,0.00,VWS V14.01,2014-10-25 22:16:00,